KPNSKEYW

Guest
Details From KPNS - Pensacola Rgnl
To KEYW - Key West Intl
Flight Number -
Tags Generated
Created
Modified
Stats Distance 458 nm / 849 km
Max Altitude 0 ft / 0 m
Waypoints 4
Social Downloads 1
Likes 0
Share VATSIM

Download

Looking for another format? Having issues loading an existing format? Contact us
Advertisement - Login to hide

Notes

Generated

Route

KPNS PSTOL MACIV KEYW

ID Type Via Altitude Latitude Longitude Leg Dist Tot Dist Heading (true) Name
O KPNS APT - 0 ft / 0 m 30.47133˚ -87.19594˚ - 0 nm - -
PSTOL FIX - 0 ft / 0 m 27.55806˚ -84.16528˚ 236 nm 236 nm 137° / 138° -
MACIV FIX - 0 ft / 0 m 24.55597˚ -81.76669˚ 221 nm 458 nm 144° / 145° -
O KEYW APT - 0 ft / 0 m 24.55605˚ -81.76677˚ 0 nm 458 nm 321° / 321° -

Altitude Profile

Advertisement - Login to hide

Weather


0- 5 10 15 20 25 30 35+ Temperature / ° C

Clouds and Precipitation
Forecast for 2018-05-22 06:00 UTC. Updated an hour ago

Ground ~20,000 ft ~40,000 ft Winds

KPNS

Details ICAO KPNS (PNS)
Name Pensacola Rgnl
Region United States
Timezone America/Chicago (UTC-5.0)
Stats Elevation 121 ft / 37 m (AMSL)
Location 30.473426° -87.186612°
Runways 2
Magnetic Variation 2.865° W

METAR

KPNS 220553Z AUTO 21003KT 10SM BKN039 24/22 A2999 RMK AO2 RAB37E49 SLP156 P0000 60176 T02390222 10267 20217 403000217 58008

Decode

TAF

KPNS 220539Z 2206/2306 VRB03KT P6SM VCSH BKN040 FM221000 VRB03KT 4SM BR VCSH BKN025 FM221400 17006KT P6SM VCTS SCT030CB TEMPO 2216/2220 VRB10G20KT 3SM TSRA BKN025CB FM230000 18005KT P6SM SCT250

Decode

Departure Runways

ID Width Length Bearing (true) Bearing (mag) Surface Threshold Offset Overrun Length
08 150 ft / 46 m 6,991 ft / 2,131 m 78.00° 80.87° Asphalt 0 ft / 0 m 0 ft / 0 m
17 150 ft / 46 m 7,025 ft / 2,141 m 167.05° 169.92° Asphalt 0 ft / 0 m 0 ft / 0 m
26 150 ft / 46 m 6,991 ft / 2,131 m 258.01° 260.88° Asphalt 0 ft / 0 m 0 ft / 0 m
35 150 ft / 46 m 7,025 ft / 2,141 m 347.05° 349.92° Asphalt 0 ft / 0 m 0 ft / 0 m

KEYW

Details ICAO KEYW (EYW)
Name Key West Intl
Region United States
Timezone America/New_York (UTC-4.0)
Stats Elevation 2 ft / 1 m (AMSL)
Location 24.556124° -81.759546°
Runways 1
Magnetic Variation 5.592° W

METAR

KEYW 220553Z AUTO 12019KT 10SM OVC100 25/23 A3000 RMK AO2 PK WND 13030/0519 SLP157 60005 T02500233 10250 20222 58008

Decode

TAF

TAF KEYW 220529Z 2206/2306 11012G22KT P6SM VCSH FEW020 BKN100 FM221200 13012G21KT P6SM VCSH SCT020 SCT090 BKN120 TEMPO 2214/2217 2SM SHRA BKN020 BKN035 OVC100

Decode

Destination Runways

ID Width Length Bearing (true) Bearing (mag) Surface Threshold Offset Overrun Length
09 100 ft / 30 m 4,794 ft / 1,461 m 89.38° 94.97° Asphalt 151 ft / 46 m 0 ft / 0 m
27 100 ft / 30 m 4,794 ft / 1,461 m 269.39° 274.98° Asphalt 151 ft / 46 m 0 ft / 0 m

Popular Alternatives